Simultaneous Nadir Overpasses (SNOs) Predictions

Prediction of SNOs between AQUA and NPP Satellite Orbit:

Table of predicted SNOs for the next 14.0 days since TLE Epoch: 9/18/2021
Index Date (AQUA) Time (AQUA) Lat,Lon (AQUA) SZA (AQUA ) Date (NPP) Time (NPP) Lat,Lon (NPP) SZA (NPP ) Distance(km) Time Diff (sec)
1 09/19/2021 05:32:32 -74.94, 152.99 83.32 09/19/2021 05:32:01 -74.93, 152.92 83.27 2.25 31
2 09/19/2021 06:21:32 76.19, -35.78 95.31 09/19/2021 06:22:18 76.18, -35.80 95.28 0.69 46
3 09/21/2021 21:48:50 -75.55, -89.47 83.03 09/21/2021 21:48:44 -75.55, -89.45 83.03 0.62 6
4 09/21/2021 22:37:52 76.67, 81.73 95.72 09/21/2021 22:39:03 76.68, 81.82 95.64 2.51 71
5 09/24/2021 13:16:09 74.64,-143.64 98.92 09/24/2021 13:15:12 74.64,-143.64 98.97 0.17 57
6 09/24/2021 14:05:15 -75.75, 26.99 82.28 09/24/2021 14:05:35 -75.74, 26.93 82.29 1.49 20
7 09/27/2021 05:32:33 74.94, -27.01 99.56 09/27/2021 05:32:02 74.94, -27.06 99.60 1.51 31
8 09/27/2021 06:21:39 -76.03, 143.73 81.63 09/27/2021 06:22:25 -76.02, 143.64 81.65 2.77 46
9 09/29/2021 21:48:55 75.33, 89.91 100.11 09/29/2021 21:48:50 75.32, 89.83 100.13 2.37 5



Historial Predications of SNOs between AQUA and NPP
